Wetbulb
70.60 73.61 76.90 76.45 75.87 75.77 75.69 75.72 75.66 76.03 75.60 75.44 75.47 75.45 75.71 75.87 75.91 75.81 75.96 76.30 76.82 76.66 77.27 77.19 76.47 76.36 76.38 76.14 76.98 77.05 77.18 76.88 76.92 76.97 76.91 76.91 76.80 76.59 76.68 76.18 75.52 73.91 75.99
72.45 74.37 76.91 76.58 76.22 75.67 75.99 76.04 75.79 76.68 75.84 75.32 75.23 75.54 75.67 76.48 75.77 76.24 77.22 77.39 77.41 77.42 77.23 76.47 76.74 76.98 76.79 77.09 77.03 77.22 77.56 77.45 77.02 76.86 76.73 76.10 75.49 76.27 76.64 76.35 75.66 74.67 75.66
73.20 73.91 74.83 77.07 76.88 76.17 75.46 76.06 76.77 76.50 76.57 75.98 75.90 76.26 76.34 75.63 76.32 77.30 77.45 77.47 77.20 76.96 77.38 77.51 77.32 77.13 76.90 76.90 76.84 76.94 76.37 76.03 76.49 76.44 76.54 74.34 74.35 75.59 74.61 75.17 75.68 75.66 75.16
73.77 73.50 74.31 76.83 76.93 76.65 76.63 76.02 77.05 76.91 76.68 77.29 76.26 76.81 76.67 76.26 77.38 77.45 77.63 77.20 77.43 77.45 77.51 77.41 77.02 76.98 76.65 76.10 76.04 75.87 76.24 76.60 76.23 75.42 72.18 72.97 74.05 75.97 75.85 75.51 74.69 74.04 74.18
73.25 73.87 74.35 76.63 76.82 76.73 76.74 76.41 77.04 77.46 76.80 77.19 77.48 76.82 76.73 77.15 77.57 77.70 77.61 77.79 77.59 77.26 76.96 76.99 76.80 76.84 76.25 75.88 76.73 76.80 76.63 76.53 74.93 72.32 70.08 70.03 71.45 74.78 75.80 75.54 75.08 74.71 74.66
72.99 73.99 76.09 76.42 75.98 76.81 76.79 76.63 76.67 77.42 77.46 77.51 76.98 77.81 77.86 77.50 77.76 77.93 77.43 77.29 76.96 77.23 77.20 76.82 76.27 76.08 75.80 75.80 76.34 77.01 76.37 75.56 74.02 71.32 71.40 72.11 70.04 73.42 73.91 74.47 74.93 74.87 74.52
72.74 74.19 74.99 76.74 76.88 76.39 76.82 76.75 76.88 77.05 77.62 77.62 77.55 77.77 77.84 77.69 77.28 77.10 77.09 76.90 77.19 76.86 76.15 75.61 75.75 75.67 75.66 75.44 75.63 76.62 76.06 75.39 72.06 71.53 71.88 71.86 72.04 74.31 73.91 73.29 72.75 72.45 72.63
73.00 73.64 74.14 76.33 76.55 76.63 76.80 76.93 77.01 77.13 77.33 77.46 77.65 77.82 77.66 77.38 77.56 77.16 77.37 77.21 77.03 76.64 75.87 75.33 75.42 75.22 74.83 75.19 77.34 76.88 75.28 74.26 73.05 72.07 71.83 71.73 74.52 75.07 74.15 74.56 74.26 74.29 74.25
73.74 73.53 73.93 74.12 75.41 76.73 76.96 76.98 77.30 77.13 77.03 77.38 77.60 77.86 77.79 77.66 77.45 77.18 77.33 77.26 77.07 76.44 76.62 76.20 75.55 75.44 75.11 75.53 77.48 77.48 75.36 74.44 69.48 69.47 71.04 71.46 74.73 73.34 74.03 73.84 73.82 73.79 73.92
72.97 73.30 73.33 73.23 73.56 73.55 74.56 77.09 77.40 77.52 77.35 77.19 77.12 77.37 77.70 77.64 77.28 76.97 77.95 77.88 76.77 76.57 76.27 76.00 75.87 75.92 75.88 76.14 77.12 76.71 74.96 73.20 68.37 70.83 71.27 70.21 72.87 70.61 70.45 70.23 70.24 70.82 71.30
72.16 72.35 72.60 72.71 72.58 73.06 74.00 75.13 76.63 77.04 77.08 77.49 76.76 77.24 77.07 73.57 73.89 75.44 76.60 76.83 76.17 76.03 75.90 75.54 75.36 75.52 76.68 76.81 76.87 76.94 73.94 67.77 69.21 69.27 68.29 72.85 72.16 69.82 69.29 68.92 68.84 68.93 68.93
70.24 71.35 71.73 71.95 72.22 73.04 74.91 74.00 72.96 73.92 73.50 72.76 73.04 73.25 72.43 72.05 72.66 74.19 75.95 76.45 76.34 75.82 75.66 75.66 75.81 76.27 75.86 72.83 72.26 76.80 68.37 67.66 68.00 67.95 68.33 72.02 71.55 69.91 69.21 68.67 68.43 68.08 67.90
70.15 71.63 71.51 71.50 72.13 72.56 72.95 72.37 71.63 71.41 71.18 71.27 71.27 71.19 71.12 71.59 72.59 73.11 73.21 73.76 72.75 74.33 72.37 72.17 71.85 71.78 72.20 71.71 71.79 71.56 68.12 67.14 67.01 68.53 70.12 72.22 71.92 70.61 69.71 69.11 68.38 68.16 67.90
69.57 70.43 71.18 71.66 71.54 70.81 72.54 71.31 71.08 70.94 71.01 70.76 71.13 71.11 70.94 71.01 71.07 70.64 71.62 71.49 71.17 71.14 70.85 70.17 69.87 69.33 69.82 70.72 71.19 71.22 67.70 67.25 66.82 67.89 70.13 72.38 72.26 71.88 71.02 70.20 69.44 68.96 68.52
68.65 70.10 70.88 71.63 70.32 70.21 71.39 70.90 70.97 70.92 71.60 71.15 70.88 71.27 71.46 70.94 70.54 70.01 69.37 69.36 69.59 69.80 69.73 69.95 70.21 69.96 69.79 69.90 68.23 71.21 67.58 67.07 67.07 67.99 69.01 73.48 72.75 72.87 72.44 71.71 71.06 70.36 69.76
67.61 68.40 70.04 70.94 70.46 71.45 71.07 70.40 70.56 70.81 71.68 70.68 70.60 70.95 71.45 70.88 70.38 69.36 68.03 69.25 69.47 69.73 69.80 69.96 70.04 69.94 69.75 71.12 70.29 67.81 67.94 67.33 67.50 67.97 69.14 70.57 74.40 73.94 73.22 73.06 72.41 71.83 71.19
67.52 67.59 68.67 70.04 70.67 70.97 69.70 70.16 70.28 70.67 71.15 71.10 71.15 71.24 71.38 70.91 70.52 69.05 68.41 69.27 69.89 69.56 69.66 70.31 70.29 70.58 70.21 70.51 68.37 67.74 66.99 67.46 67.97 67.90 69.35 70.05 72.00 74.91 74.12 73.89 73.76 73.33 72.78
67.53 68.08 69.55 71.42 70.60 70.11 68.04 68.78 70.04 69.55 70.20 70.97 71.03 71.46 71.95 71.98 71.67 70.12 70.47 70.07 70.02 70.09 69.86 69.11 68.65 68.43 69.13 69.50 68.55 67.37 67.50 67.71 68.35 68.50 68.97 69.88 70.79 72.16 73.89 74.99 75.08 74.88 73.73
69.27 69.48 69.17 69.60 69.78 69.53 69.20 69.77 69.68 69.85 69.86 70.90 70.85 71.51 71.75 71.78 72.23 71.03 70.81 70.96 69.73 68.89 68.92 69.18 69.58 69.44 69.00 67.75 68.50 69.12 67.64 67.96 68.30 70.33 69.99 69.63 70.09 71.27 70.61 73.15 75.67 75.54 74.65
70.32 70.17 69.84 70.25 70.69 70.39 70.71 71.18 70.02 70.27 70.33 71.45 71.48 71.49 71.80 71.60 72.63 71.92 70.24 69.66 69.23 68.71 69.42 70.77 71.05 69.37 68.86 68.65 70.06 69.84 69.06 67.12 68.00 67.65 69.09 71.42 70.39 70.65 70.44 70.02 70.76 73.35 75.64
69.88 69.56 70.67 70.43 70.10 70.60 70.65 70.11 70.02 69.51 70.08 70.85 70.98 71.88 71.26 71.46 72.53 71.86 72.12 71.17 69.27 69.19 69.58 71.81 68.16 69.25 68.98 69.55 65.51 65.72 68.43 68.34 67.05 66.83 68.53 68.50 70.02 71.49 70.90 70.30 69.99 70.67 71.85
68.84 68.76 69.63 70.02 69.30 70.98 71.71 70.51 71.18 70.77 71.01 71.47 71.15 71.42 71.81 71.98 72.43 72.38 72.56 70.61 70.14 70.30 70.51 70.98 69.22 68.37 69.11 69.68 64.82 65.86 64.83 64.94 65.19 66.39 63.84 64.86 65.72 67.60 69.28 71.14 70.57 70.34 70.69
68.34 68.37 69.00 69.18 68.94 70.49 71.07 71.09 70.95 71.58 71.02 70.10 69.99 70.33 71.46 72.23 72.57 72.45 73.12 71.53 70.60 70.64 71.37 69.62 69.75 68.40 66.59 68.06 68.62 66.11 61.80 60.71 61.30 62.37 63.48 64.83 65.00 64.62 65.12 67.12 70.99 71.18 70.75
68.24 69.24 69.34 69.23 69.18 69.98 71.01 70.72 70.79 69.77 68.98 70.42 70.45 70.64 71.10 72.60 72.52 73.02 73.27 72.63 71.10 73.51 71.08 69.98 71.06 70.03 68.00 65.24 67.21 69.14 65.93 62.72 56.05 58.58 61.10 62.77 63.98 65.19 65.87 66.20 66.58 68.16 70.51
68.89 68.79 69.89 69.26 69.46 69.65 70.92 71.32 70.82 69.56 70.21 70.23 70.30 70.69 70.79 71.90 72.65 73.35 73.02 73.19 72.37 72.57 72.20 70.91 70.98 70.03 69.55 69.25 68.39 66.43 63.53 64.69 61.41 58.76 59.11 60.61 61.55 61.46 63.14 66.04 66.93 66.68 66.74
68.66 68.82 70.45 69.57 69.50 69.72 70.45 70.38 70.76 70.03 69.75 69.39 69.71 70.36 70.77 71.67 72.25 72.39 73.25 73.53 72.91 71.45 71.90 72.06 71.24 70.14 69.55 70.12 70.12 67.76 64.61 62.63 61.46 61.04 58.83 57.21 57.53 60.07 64.02 65.18 66.57 67.07 67.10
MSLP
1014.66 1014.38 1014.40 1014.59 1014.67 1014.73 1014.70 1014.75 1014.75 1014.74 1014.87 1014.91 1014.88 1014.95 1015.04 1015.10 1015.18 1015.22 1015.35 1015.37 1015.45 1015.61 1015.55 1015.47 1015.59 1015.65 1015.74 1015.91 1015.88 1016.16 1016.17 1016.17 1016.19 1016.25 1016.32 1016.40 1016.43 1016.47 1016.50 1016.61 1016.62 1016.65 1016.69
1014.23 1014.48 1014.69 1014.78 1014.95 1014.96 1014.96 1015.01 1015.05 1015.01 1015.08 1015.17 1015.17 1015.18 1015.32 1015.42 1015.36 1015.52 1015.82 1015.80 1015.82 1015.83 1015.85 1015.78 1015.92 1016.04 1016.16 1016.12 1016.24 1016.29 1016.36 1016.49 1016.54 1016.54 1016.54 1016.67 1016.80 1016.78 1016.75 1016.80 1016.89 1017.00 1017.01
1014.48 1014.63 1014.74 1014.91 1014.97 1015.17 1015.28 1015.31 1015.30 1015.33 1015.30 1015.42 1015.43 1015.44 1015.56 1015.66 1015.66 1015.79 1015.92 1016.07 1016.14 1016.29 1016.18 1016.16 1016.40 1016.49 1016.47 1016.45 1016.56 1016.58 1016.64 1016.79 1016.81 1016.92 1016.99 1017.10 1017.01 1017.04 1017.05 1017.16 1017.19 1017.26 1017.32
1014.46 1014.77 1014.99 1015.13 1015.21 1015.35 1015.45 1015.49 1015.48 1015.58 1015.62 1015.65 1015.74 1015.89 1015.94 1015.94 1015.92 1015.93 1016.17 1016.32 1016.34 1016.46 1016.60 1016.70 1016.78 1016.86 1016.82 1016.90 1016.88 1016.99 1016.96 1017.04 1017.16 1017.33 1017.44 1017.46 1017.36 1017.40 1017.43 1017.46 1017.58 1017.66 1017.61
1014.81 1014.98 1015.20 1015.30 1015.43 1015.52 1015.70 1015.72 1015.68 1015.81 1015.86 1015.84 1015.93 1016.17 1016.27 1016.21 1016.25 1016.40 1016.53 1016.65 1016.71 1016.81 1017.02 1017.13 1017.10 1017.18 1017.30 1017.21 1017.11 1017.05 1017.06 1017.30 1017.62 1017.78 1017.92 1017.89 1017.81 1017.70 1017.74 1017.84 1017.87 1017.87 1017.79
1015.01 1015.13 1015.24 1015.44 1015.55 1015.70 1015.89 1015.96 1016.05 1016.11 1016.05 1016.02 1016.21 1016.37 1016.48 1016.56 1016.59 1016.67 1016.80 1016.97 1017.09 1017.13 1017.29 1017.42 1017.49 1017.54 1017.54 1017.49 1017.42 1017.52 1017.70 1017.91 1018.14 1018.29 1018.26 1018.15 1018.15 1017.98 1018.04 1018.08 1018.08 1018.13 1018.11
1015.20 1015.30 1015.52 1015.61 1015.71 1015.89 1016.07 1016.24 1016.21 1016.36 1016.38 1016.29 1016.46 1016.66 1016.72 1016.79 1016.89 1017.01 1017.13 1017.32 1017.35 1017.55 1017.65 1017.76 1017.71 1017.77 1017.78 1017.83 1017.77 1017.90 1018.09 1018.29 1018.57 1018.68 1018.67 1018.56 1018.44 1018.35 1018.36 1018.37 1018.38 1018.39 1018.38
1015.31 1015.46 1015.59 1015.71 1015.87 1016.05 1016.17 1016.38 1016.47 1016.59 1016.65 1016.69 1016.80 1016.88 1016.98 1017.09 1017.11 1017.19 1017.30 1017.52 1017.72 1017.81 1017.87 1017.99 1018.05 1018.14 1018.18 1018.16 1018.06 1018.23 1018.39 1018.54 1018.83 1018.96 1018.96 1018.87 1018.66 1018.56 1018.57 1018.52 1018.54 1018.55 1018.53
1015.28 1015.54 1015.74 1016.00 1016.04 1016.17 1016.41 1016.61 1016.68 1016.77 1016.88 1017.02 1017.08 1017.14 1017.17 1017.25 1017.36 1017.49 1017.61 1017.81 1017.92 1018.10 1018.16 1018.23 1018.36 1018.41 1018.48 1018.56 1018.49 1018.62 1018.68 1018.87 1019.15 1019.23 1019.11 1019.06 1018.89 1018.86 1018.86 1018.86 1018.84 1018.80 1018.80
1015.59 1015.72 1015.94 1016.12 1016.33 1016.52 1016.64 1016.70 1016.83 1016.91 1016.94 1017.05 1017.26 1017.39 1017.45 1017.50 1017.60 1017.72 1017.93 1017.96 1018.06 1018.27 1018.41 1018.53 1018.64 1018.71 1018.82 1018.77 1018.68 1018.77 1018.94 1019.12 1019.38 1019.37 1019.31 1019.22 1019.06 1019.03 1019.07 1019.06 1019.07 1019.10 1019.14
1016.02 1016.15 1016.24 1016.49 1016.68 1016.75 1016.94 1017.02 1017.04 1017.13 1017.19 1017.22 1017.32 1017.45 1017.58 1017.87 1017.88 1017.99 1018.14 1018.14 1018.25 1018.46 1018.61 1018.74 1018.86 1018.93 1018.90 1018.85 1018.87 1018.91 1019.11 1019.47 1019.58 1019.61 1019.52 1019.20 1019.20 1019.22 1019.28 1019.28 1019.30 1019.31 1019.34
1016.17 1016.38 1016.55 1016.56 1016.83 1016.90 1016.96 1017.22 1017.41 1017.42 1017.52 1017.62 1017.69 1017.82 1018.14 1018.28 1018.27 1018.28 1018.26 1018.31 1018.43 1018.66 1018.84 1018.97 1019.01 1019.02 1018.96 1019.02 1019.03 1018.96 1019.30 1019.50 1019.62 1019.70 1019.65 1019.43 1019.37 1019.38 1019.48 1019.52 1019.53 1019.52 1019.51
1015.99 1016.26 1016.53 1016.64 1016.78 1016.90 1017.07 1017.47 1017.72 1017.79 1017.91 1017.98 1018.08 1018.26 1018.44 1018.57 1018.62 1018.54 1018.66 1018.64 1018.83 1018.86 1019.09 1019.17 1019.22 1019.22 1019.04 1019.01 1018.94 1019.02 1019.19 1019.42 1019.60 1019.72 1019.59 1019.49 1019.48 1019.50 1019.53 1019.61 1019.69 1019.68 1019.65
1016.04 1016.09 1016.38 1016.55 1016.84 1016.97 1017.15 1017.50 1017.66 1017.98 1018.08 1018.19 1018.24 1018.36 1018.58 1018.82 1018.97 1019.00 1018.96 1019.05 1019.06 1019.10 1019.04 1019.08 1019.26 1019.39 1019.31 1018.99 1018.80 1018.79 1019.03 1019.31 1019.58 1019.72 1019.61 1019.45 1019.50 1019.56 1019.62 1019.69 1019.76 1019.80 1019.80
1016.01 1016.03 1016.04 1016.26 1016.80 1017.06 1017.27 1017.48 1017.73 1017.94 1018.07 1018.16 1018.30 1018.36 1018.51 1018.83 1019.04 1019.16 1019.20 1019.29 1019.15 1019.16 1019.17 1019.14 1019.08 1018.91 1018.72 1018.53 1018.45 1018.65 1018.82 1019.08 1019.33 1019.63 1019.71 1019.48 1019.48 1019.50 1019.53 1019.61 1019.70 1019.78 1019.87
1015.70 1015.82 1016.17 1016.28 1016.38 1016.74 1017.18 1017.49 1017.66 1017.86 1017.93 1018.16 1018.23 1018.29 1018.40 1018.64 1018.97 1019.21 1019.38 1019.36 1019.28 1019.30 1019.28 1019.18 1019.10 1018.94 1018.90 1018.68 1018.29 1018.51 1018.66 1018.84 1019.15 1019.51 1019.66 1019.60 1019.49 1019.48 1019.49 1019.54 1019.62 1019.70 1019.79
1015.16 1015.56 1015.95 1016.06 1016.24 1016.62 1016.99 1017.32 1017.58 1017.70 1017.86 1018.01 1018.07 1018.25 1018.37 1018.57 1018.83 1019.06 1019.29 1019.34 1019.20 1019.24 1019.22 1019.17 1018.94 1018.87 1018.73 1018.60 1018.55 1018.42 1018.74 1018.83 1019.02 1019.30 1019.46 1019.52 1019.42 1019.33 1019.29 1019.34 1019.46 1019.56 1019.62
1014.83 1015.27 1015.73 1016.05 1016.40 1016.59 1016.93 1017.07 1017.37 1017.61 1017.76 1017.91 1017.95 1018.10 1018.22 1018.41 1018.76 1019.00 1019.09 1019.01 1019.22 1019.15 1019.10 1019.07 1019.18 1018.93 1018.78 1018.69 1018.60 1018.61 1018.55 1018.65 1018.78 1019.05 1019.22 1019.22 1019.26 1019.18 1019.08 1019.07 1019.17 1019.25 1019.30
1014.34 1014.98 1015.47 1015.83 1016.30 1016.62 1016.70 1016.80 1017.09 1017.44 1017.68 1017.78 1017.96 1018.06 1018.09 1018.32 1018.56 1018.86 1018.97 1018.85 1019.02 1019.04 1019.03 1019.17 1019.18 1019.18 1019.06 1018.82 1018.61 1018.37 1018.45 1018.47 1018.33 1018.45 1018.82 1018.93 1018.98 1018.96 1018.94 1018.85 1018.80 1018.85 1018.89
1014.04 1014.54 1015.00 1015.63 1016.01 1016.41 1016.56 1016.73 1017.02 1017.41 1017.57 1017.71 1017.85 1017.92 1018.03 1018.29 1018.45 1018.75 1018.98 1018.87 1018.83 1019.01 1019.17 1019.19 1019.22 1019.13 1019.15 1019.04 1018.71 1018.37 1018.24 1018.12 1018.04 1018.24 1018.31 1018.34 1018.53 1018.49 1018.51 1018.62 1018.66 1018.52 1018.53
1013.95 1014.43 1014.90 1015.45 1015.89 1016.27 1016.68 1017.11 1017.42 1017.55 1017.59 1017.77 1017.77 1017.74 1017.94 1018.14 1018.22 1018.59 1018.73 1018.79 1018.93 1019.22 1019.14 1019.09 1019.22 1019.36 1019.32 1019.09 1018.94 1018.58 1018.34 1018.12 1018.19 1018.23 1018.06 1018.08 1018.10 1017.95 1018.09 1018.23 1018.40 1018.35 1018.22
1013.48 1014.06 1014.64 1014.99 1015.45 1015.89 1016.02 1016.55 1016.84 1017.07 1017.22 1017.25 1017.44 1017.70 1017.81 1017.90 1018.03 1018.23 1018.41 1018.61 1018.66 1018.86 1018.96 1019.14 1019.36 1019.65 1019.51 1019.16 1019.52 1019.68 1019.37 1018.57 1018.23 1018.16 1018.14 1018.19 1018.01 1017.84 1017.84 1017.82 1017.91 1017.94 1017.86
1013.05 1013.61 1014.18 1014.48 1014.97 1015.48 1015.73 1016.26 1016.73 1016.97 1017.20 1017.46 1017.65 1017.76 1017.69 1017.74 1017.78 1017.91 1018.02 1018.22 1018.35 1018.56 1018.91 1019.11 1019.30 1019.64 1019.51 1019.40 1019.50 1019.80 1020.02 1019.96 1019.56 1018.64 1018.37 1018.23 1018.12 1017.94 1017.56 1017.42 1017.30 1017.26 1017.27
1012.38 1012.92 1013.39 1013.88 1014.33 1014.83 1015.39 1015.91 1016.41 1016.79 1017.17 1017.09 1017.17 1017.37 1017.47 1017.46 1017.58 1017.71 1017.83 1018.04 1018.15 1018.16 1018.72 1018.86 1019.04 1019.32 1019.56 1019.64 1019.62 1019.62 1019.77 1019.96 1020.07 1019.92 1018.85 1018.35 1017.98 1017.68 1017.48 1017.08 1016.86 1016.69 1016.70
1011.86 1012.34 1012.82 1013.30 1013.74 1014.25 1014.88 1015.35 1015.89 1016.38 1016.52 1016.56 1016.86 1017.18 1017.36 1017.40 1017.44 1017.50 1017.62 1017.78 1018.03 1018.21 1018.52 1018.69 1018.87 1019.19 1019.34 1019.42 1019.64 1019.83 1019.89 1020.05 1020.12 1020.39 1020.04 1019.15 1018.45 1017.76 1017.36 1017.07 1016.59 1016.31 1016.36
1011.20 1011.87 1012.35 1012.88 1013.25 1013.76 1014.26 1014.80 1015.38 1015.90 1016.29 1016.61 1016.76 1017.06 1017.25 1017.32 1017.50 1017.52 1017.48 1017.59 1017.76 1018.03 1018.33 1018.46 1018.81 1019.13 1019.27 1019.37 1019.58 1019.81 1020.06 1020.39 1020.45 1020.54 1020.60 1019.96 1019.52 1018.28 1017.45 1016.94 1016.70 1016.38 1016.19
Wind_Speed
5 5 12 14 14 14 14 14 15 15 15 16 18 18 18 16 15 14 13 12 12 12 12 15 15 15 15 15 16 15 15 15 15 14 14 13 12 11 13 12 11 8 11
8 6 13 14 14 15 14 14 14 13 14 15 16 16 17 15 15 15 14 13 12 11 13 15 15 15 14 14 14 15 14 14 13 13 13 12 11 11 11 11 10 8 9
8 8 11 13 15 16 14 13 13 13 14 14 13 14 14 14 12 13 14 13 12 12 14 14 14 13 14 13 11 12 12 12 12 12 11 4 6 11 11 11 11 10 10
10 6 8 13 14 16 15 14 13 14 14 13 13 13 12 11 11 11 12 12 13 13 14 14 13 12 11 9 7 5 6 10 8 9 5 4 6 9 9 11 10 9 9
7 7 10 14 14 15 15 14 13 13 13 13 13 13 13 11 12 11 11 10 11 13 13 12 12 11 8 8 8 9 6 6 8 7 5 5 5 7 10 9 8 7 6
9 7 13 15 14 14 15 15 14 14 13 12 13 12 13 12 12 11 11 9 9 10 11 10 10 8 7 6 7 9 11 11 8 5 5 6 5 8 8 7 7 6 5
7 6 9 14 14 15 15 14 14 15 14 12 12 13 12 11 12 11 10 9 8 8 10 8 8 6 6 4 3 11 10 9 5 4 4 4 3 7 7 6 6 5 5
9 6 7 13 15 15 15 15 15 15 14 14 12 12 12 11 10 9 8 8 8 8 8 8 7 5 4 6 3 10 10 9 5 4 3 2 5 5 6 5 5 5 5
8 6 6 7 11 15 15 15 15 15 14 14 13 12 12 11 9 9 8 7 8 7 7 7 5 5 5 6 7 8 8 8 4 2 3 2 6 6 6 6 7 7 7
7 5 5 6 5 5 6 14 14 14 14 14 12 12 11 11 9 8 5 6 7 5 5 5 4 3 2 3 6 9 7 7 3 3 3 2 5 6 6 6 6 6 5
6 5 5 5 5 6 4 7 11 14 14 14 13 12 8 2 3 5 5 5 4 3 2 1 1 0 1 1 2 7 7 2 3 1 1 6 6 7 6 5 6 5 5
9 7 5 6 5 5 6 5 4 4 3 3 3 5 3 2 2 3 4 4 3 2 1 2 2 3 3 1 2 2 3 4 2 2 1 6 6 6 6 5 5 5 5
10 8 7 6 6 6 4 4 2 2 2 3 4 4 3 2 1 1 1 2 1 2 1 1 1 2 3 3 3 3 4 4 3 2 3 7 6 6 5 4 3 4 4
9 9 8 7 7 5 4 4 4 3 3 3 4 5 3 1 1 2 2 2 2 1 3 2 2 3 5 6 6 5 5 4 3 2 4 9 8 6 6 5 5 4 4
9 10 13 10 7 5 5 4 3 4 3 4 4 5 4 4 4 2 3 2 3 2 2 4 4 4 5 2 2 5 6 6 5 3 2 10 10 9 8 8 7 7 6
10 9 8 10 9 8 5 5 4 4 4 4 4 4 5 4 4 4 3 4 4 2 3 4 4 4 3 4 3 4 5 5 5 5 3 4 11 11 11 10 10 9 9
11 10 9 10 9 9 8 6 4 4 4 4 4 5 5 5 5 5 4 4 4 2 5 4 3 3 4 1 2 2 3 4 4 5 4 4 5 13 13 13 12 12 11
11 13 11 9 9 9 7 6 4 4 4 4 4 4 6 6 4 4 3 4 1 3 2 2 3 4 4 5 1 3 4 4 6 5 5 4 4 5 11 15 14 13 14
14 13 12 9 9 8 7 5 5 5 4 4 3 4 6 5 5 5 4 4 2 2 2 2 2 1 3 3 4 3 3 5 6 5 6 6 6 6 4 10 16 15 17
14 14 14 10 9 7 5 3 2 3 3 3 4 4 6 4 6 5 3 4 2 2 3 2 2 1 1 3 4 4 3 3 4 5 5 5 5 7 6 6 5 8 17
12 13 13 12 8 7 3 3 2 3 3 2 3 5 6 5 5 5 3 3 3 4 3 2 1 3 2 2 3 4 2 2 3 3 3 4 5 7 6 6 5 4 5
15 13 11 13 9 7 6 3 3 4 3 4 4 4 5 6 6 4 3 4 4 2 3 2 0 2 2 3 1 1 4 5 4 3 2 1 4 3 5 6 6 6 6
16 15 13 13 12 8 7 4 2 3 3 2 2 3 5 6 6 5 4 4 4 3 3 2 1 2 2 2 3 3 2 1 3 3 3 2 3 3 4 4 6 6 7
17 15 15 13 13 9 9 7 6 5 4 5 5 4 5 6 6 5 6 5 5 3 4 3 3 2 0 1 2 2 2 3 1 5 3 3 4 3 4 3 5 6 6
17 16 14 13 12 9 12 9 6 5 4 4 3 6 5 4 5 6 6 5 5 4 4 5 3 3 2 2 2 1 2 2 2 2 3 5 4 3 5 4 5 5 4
17 16 15 14 12 9 11 10 9 8 6 4 4 4 4 4 4 5 6 6 5 5 4 4 3 4 3 1 1 2 2 0 2 1 1 3 4 5 4 5 4 4 3
Wind_Direction
181 169 147 136 131 127 124 117 117 115 116 116 121 123 125 133 127 119 108 102 98 94 92 90 92 96 97 101 97 98 98 98 97 94 94 94 95 101 98 99 96 98 98
129 152 146 133 128 126 129 125 125 123 124 122 123 120 118 120 121 121 110 110 104 103 94 94 92 91 97 95 92 94 93 94 95 92 92 98 96 94 92 97 101 100 93
132 143 137 133 130 128 129 133 129 129 127 129 129 120 113 115 119 109 104 101 105 112 104 97 96 93 88 86 89 91 98 95 97 98 94 70 90 99 94 93 89 89 93
129 130 123 133 128 131 131 135 135 134 133 132 136 127 118 115 105 105 104 109 108 104 102 101 99 90 82 86 92 131 145 110 92 85 56 50 86 91 99 103 99 95 98
128 125 139 137 134 134 132 136 140 136 138 140 139 132 123 124 117 116 117 118 107 106 105 104 100 96 98 89 84 74 113 184 94 75 66 60 45 76 89 99 100 102 104
136 139 140 142 140 135 136 138 144 141 139 142 137 131 131 130 124 123 118 119 113 103 98 98 106 112 100 81 77 104 103 106 94 71 66 74 67 88 84 83 81 80 75
133 136 146 143 150 141 141 142 142 140 139 142 132 132 130 130 136 131 127 129 113 103 91 104 109 102 83 66 74 125 111 108 85 81 75 72 80 94 96 99 97 89 77
134 130 143 148 149 147 146 145 142 140 142 143 140 135 136 138 137 135 134 128 117 96 97 96 96 95 69 39 99 123 119 117 97 89 84 75 83 83 121 121 124 114 116
140 135 138 135 153 151 149 148 146 144 144 140 140 144 141 145 145 148 133 124 113 104 97 93 96 72 42 37 78 122 107 118 118 136 127 84 95 85 78 74 72 72 70
137 134 137 131 135 141 149 155 150 145 144 141 143 141 149 154 157 150 118 114 112 111 93 90 87 86 102 82 79 138 141 138 141 136 106 134 115 107 102 96 93 89 85
145 142 129 127 142 130 147 159 149 148 152 150 151 153 137 101 133 131 145 135 149 145 116 129 129 129 274 38 151 157 143 145 144 161 173 133 125 119 112 108 102 101 103
164 158 146 139 145 147 158 138 134 159 124 123 130 110 104 124 120 154 179 178 193 216 257 264 325 317 329 321 317 229 151 165 160 196 204 154 140 129 123 115 111 111 108
170 164 163 160 170 167 138 129 136 141 141 147 146 135 142 124 331 268 313 307 357 292 286 331 332 293 279 274 254 220 178 177 170 210 204 172 162 155 149 143 142 136 134
174 171 165 169 172 186 143 153 169 157 177 174 176 167 164 170 220 268 259 259 264 280 291 298 257 218 228 239 234 215 187 179 169 219 212 186 186 187 185 185 189 189 184
177 188 181 173 169 174 161 163 164 179 187 189 185 197 184 178 187 222 257 271 272 288 293 303 314 318 321 315 207 207 178 190 183 203 219 203 203 206 207 208 208 212 215
179 194 176 182 172 165 167 174 176 183 188 187 192 209 204 170 175 209 227 246 259 254 287 290 300 307 305 301 293 185 200 188 181 195 206 228 216 220 222 224 223 224 222
184 180 181 184 173 171 173 180 175 178 178 190 191 196 205 185 195 197 210 233 252 286 289 291 303 298 296 67 316 211 198 204 200 204 207 215 229 227 228 231 234 235 233
176 177 178 189 181 177 178 184 174 180 179 198 189 182 196 200 203 217 231 250 205 267 278 333 305 314 339 330 294 232 209 205 207 208 212 212 218 224 236 235 235 237 240
174 170 177 179 175 186 187 180 173 182 190 189 193 195 196 193 205 213 243 271 255 239 259 254 272 332 306 318 307 287 229 222 211 203 214 223 216 224 223 240 238 238 241
171 169 171 177 176 181 170 141 144 160 201 186 191 212 196 195 205 205 234 242 212 266 267 272 332 315 280 308 294 301 303 237 216 223 211 218 215 223 221 225 239 243 242
171 167 173 173 185 163 143 144 152 187 186 196 207 207 194 190 206 190 219 232 207 217 244 7 10 15 326 319 1 341 328 331 244 275 226 229 232 229 221 223 226 236 246
175 180 174 182 175 183 161 163 158 165 189 190 182 204 209 195 205 196 212 229 224 239 283 336 43 348 272 37 65 80 355 336 351 6 35 319 290 256 247 229 224 228 234
181 184 185 184 179 179 169 136 74 71 49 106 184 199 217 212 206 207 211 211 228 184 255 211 201 212 293 14 53 133 9 295 327 339 358 338 320 273 275 260 231 225 228
190 188 185 186 183 175 167 170 161 175 158 203 189 196 204 207 213 205 213 214 223 201 217 204 184 185 153 51 341 66 96 155 122 339 323 302 320 298 280 286 264 243 227
186 190 190 186 187 174 176 178 177 168 188 182 167 179 200 218 225 208 210 210 211 208 217 196 176 178 194 158 163 20 29 49 84 124 287 321 337 299 287 284 285 270 235
187 187 187 188 196 176 178 176 180 186 181 174 180 182 191 207 214 218 215 192 200 200 203 196 199 190 195 170 133 144 129 93 315 51 308 289 257 298 293 300 310 314 302